CAPE
0 0 0 0 0 0 0 0 0 0 0 0 0 0 0 0 0 0 0 0 0 0 0 0 0 0 0 0 19 191 189 103 34 7 3 4 1 0 0 0 0 0 0
0 0 0 0 0 0 0 0 0 0 0 0 0 0 0 0 0 0 0 0 0 0 0 0 0 0 0 0 3 32 95 132 72 28 7 1 1 2 0 0 0 0 0
0 0 0 0 0 0 0 0 0 0 0 0 0 0 1 1 1 0 0 0 1 0 0 0 0 0 3 3 7 13 5 79 102 58 11 5 0 0 0 0 0 0 0
0 0 0 0 0 0 0 0 0 0 0 0 0 0 2 2 0 0 0 0 1 0 0 0 0 0 0 3 10 16 26 36 158 32 64 29 1 0 0 0 0 0 0
0 0 0 0 0 0 0 0 0 0 0 0 0 1 2 1 1 1 2 0 0 0 0 0 0 0 0 0 12 26 11 20 47 58 5 47 0 0 0 0 0 0 0
0 0 0 0 0 0 0 0 0 0 0 0 0 0 1 2 2 1 2 0 0 0 0 0 0 0 0 0 9 19 19 16 24 30 68 39 42 0 1 0 0 0 0
0 0 0 0 0 0 0 0 0 0 0 0 0 0 1 2 2 2 1 1 0 0 1 0 0 2 2 1 11 13 17 15 18 23 45 60 33 69 32 12 10 0 0
0 0 0 0 0 0 0 0 0 0 0 0 0 0 0 2 2 2 2 4 1 2 0 0 0 0 6 18 35 13 17 30 21 13 48 37 11 48 64 7 23 0 0
0 0 0 0 0 0 0 0 0 0 0 0 0 0 1 1 1 2 2 1 2 5 1 0 0 0 1 6 19 11 10 34 42 27 40 33 21 18 2 16 0 0 1
0 0 0 0 0 0 0 0 0 0 0 0 0 0 0 0 0 0 3 2 2 4 1 1 1 1 0 4 12 8 15 29 24 22 37 54 64 26 45 35 7 9 4
0 0 0 0 0 0 0 0 0 0 0 0 0 0 0 0 1 2 1 2 2 4 1 1 2 1 0 4 7 6 5 1 8 31 16 4 24 25 31 28 27 3 9
0 0 0 0 0 0 0 0 0 0 0 0 0 0 0 0 0 4 3 2 2 1 2 1 1 1 1 4 10 11 11 18 6 8 6 0 26 61 84 59 67 2 5
0 0 0 0 0 0 0 0 0 0 0 0 0 0 0 0 0 2 2 3 3 1 0 1 1 0 0 7 17 19 12 13 11 24 48 22 28 2 38 15 9 20 43
0 0 0 0 0 0 0 0 0 0 0 0 0 0 0 0 0 0 0 2 2 1 3 2 1 2 1 1 17 27 21 22 15 14 27 120 52 4 2 3 14 5 8
0 0 0 0 0 0 0 0 0 0 0 0 0 0 0 0 0 0 0 0 1 1 2 3 1 1 2 2 0 5 25 26 34 41 36 98 91 17 1 5 11 13 13
0 0 0 0 0 0 0 0 0 0 0 0 0 0 0 0 0 0 0 0 0 0 0 4 3 3 5 4 0 0 1 10 11 24 55 37 21 16 5 5 22 19 12
0 0 0 0 0 0 0 0 0 0 0 0 0 0 0 0 0 0 0 0 0 0 0 1 2 4 4 3 4 1 1 0 0 0 0 0 0 1 0 0 0 0 0
0 0 0 0 0 0 0 0 0 0 0 0 0 0 0 0 0 0 0 0 0 0 0 0 0 2 3 4 4 2 4 4 4 3 3 3 2 3 1 2 0 2 1
0 0 0 0 0 0 0 0 0 0 0 0 0 0 0 0 0 0 0 0 0 0 0 0 0 0 2 0 3 1 2 0 3 3 3 1 1 2 3 4 3 3 4
0 0 0 0 0 0 0 0 0 0 0 0 0 0 0 0 0 0 0 0 0 0 0 0 0 0 0 0 0 0 0 1 3 4 4 5 5 3 1 1 1 2 1
0 0 0 0 0 0 0 0 0 0 0 0 0 0 0 0 0 0 0 0 0 0 0 0 0 0 0 0 0 0 0 0 0 2 4 3 1 1 0 0 0 1 0
0 0 0 0 0 0 0 0 0 0 0 0 0 0 0 0 0 0 0 0 0 0 0 0 0 0 0 0 0 0 0 0 0 0 0 1 0 0 0 0 0 0 0
0 0 0 0 0 0 0 0 0 0 0 0 0 0 0 0 0 0 0 0 0 0 0 0 0 0 0 0 0 0 0 0 0 0 1 0 0 0 0 0 0 0 0
0 0 0 0 0 0 0 0 0 0 0 0 0 0 0 0 0 0 0 0 0 0 0 0 0 0 0 0 0 0 0 0 0 0 0 0 0 0 0 0 0 0 0
0 0 0 0 0 0 0 0 0 0 0 0 0 0 0 0 0 0 0 0 0 0 0 0 0 0 0 0 0 0 0 0 0 0 0 0 0 0 0 0 0 0 0
0 0 0 0 0 0 0 0 0 0 0 0 0 0 0 0 0 0 0 0 0 0 0 0 0 0 0 0 0 0 0 0 0 0 0 0 0 0 0 0 0 0 0
CIN
-0 -0 -0 -0 -0 -0 -0 -0 -0 -0 -0 -0 -0 -0 -0 -0 -0 -0 -0 -0 -0 -0 -0 -0 -0 -0 -0 -0 -91 -53 -35 -39 -88 -47 -93 -50 -0 -0 -0 -0 -0 -0 -0
-0 -0 -0 -0 -0 -0 -0 -0 -0 -0 -0 -0 -0 -0 -0 -0 -0 -0 -0 -0 -0 -0 -0 -0 -0 -0 -0 -0 -0 -142 -87 -47 -38 -43 -34 -0 -0 -0 -0 -0 -0 -0 -0
-0 -0 -0 -0 -0 -0 -0 -0 -0 -0 -0 -0 -0 -0 -0 -0 -0 -0 -0 -0 -0 -0 -0 -0 -0 -0 -0 -0 -0 -0 -0 -52 -35 -26 -42 -12 -1 -0 -0 -0 -0 -0 -0
-0 -0 -0 -0 -0 -0 -0 -0 -0 -0 -0 -0 -0 -0 -0 -0 -0 -0 -0 -2 -4 -0 -0 -0 -0 -0 -0 -0 -0 -0 -0 -81 -22 -38 -35 -9 -3 -5 -0 -0 -0 -0 -0
-0 -0 -0 -0 -0 -0 -0 -0 -0 -0 -0 -0 -0 -0 -0 -0 -0 -0 -0 -0 -2 -0 -0 -0 -0 -0 -0 -0 -0 -0 -0 -1 -0 -30 -11 -8 -0 -0 -0 -0 -0 -0 -0
-0 -0 -0 -0 -0 -0 -0 -0 -0 -0 -0 -0 -0 -0 -0 -0 -0 -0 -0 -0 -0 -1 -0 -0 -0 -0 -0 -0 -0 -0 -0 -1 -1 -3 -0 -0 -3 -9 -20 -0 -0 -0 -0
-0 -0 -0 -0 -0 -0 -0 -0 -0 -0 -0 -0 -0 -0 -0 -0 -0 -0 -0 -0 -0 -0 -0 -0 -0 -54 -51 -28 -0 -1 -0 -0 -0 -1 -1 -0 -5 -3 -44 -17 -19 -0 -0
-0 -0 -0 -0 -0 -0 -0 -0 -0 -0 -0 -0 -0 -0 -0 -0 -0 -0 -0 -0 -0 -0 -0 -0 -0 -0 -44 -20 -6 -3 -1 -1 -3 -4 -66 -1 -1 -1 -19 -16 -24 -0 -0
-0 -0 -0 -0 -0 -0 -0 -0 -0 -0 -0 -0 -0 -0 -0 -0 -0 -0 -0 -0 -0 -0 -0 -0 -0 -0 -39 -26 -10 -7 -6 -1 -1 -12 -9 -10 -12 -17 -21 -58 -18 -6 -4
-0 -0 -0 -0 -0 -0 -0 -0 -0 -0 -0 -0 -0 -0 -0 -0 -0 -0 -0 -0 -0 -0 -0 -0 -0 -0 -20 -42 -23 -11 -3 -2 -2 -5 -8 -20 -22 -16 -19 -21 -31 -26 -19
-0 -0 -0 -0 -0 -0 -0 -0 -0 -0 -0 -0 -0 -0 -0 -0 -0 -0 -0 -0 -0 -0 -0 -0 -0 -0 -0 -34 -23 -13 -9 -8 -10 -7 -9 -10 -47 -39 -53 -33 -27 -17 -33
-0 -0 -0 -0 -0 -0 -0 -0 -0 -0 -0 -0 -0 -0 -0 -0 -0 -0 -0 -0 -0 -0 -0 -0 -0 -0 -0 -16 -17 -12 -14 -10 -14 -15 -15 -0 -22 -14 -13 -38 -19 -2 -18
-0 -0 -0 -0 -0 -0 -0 -0 -0 -0 -0 -0 -0 -0 -0 -0 -0 -0 -0 -0 -0 -0 -0 -0 -0 -9 -0 -10 -22 -17 -18 -17 -15 -14 -22 -43 -35 -0 -13 -43 -26 -42 -46
-0 -0 -0 -0 -0 -0 -0 -0 -0 -0 -0 -0 -0 -0 -0 -0 -0 -0 -0 -0 -0 -0 -0 -0 -0 -0 -14 -0 -11 -15 -19 -21 -22 -30 -10 -23 -28 -49 -4 -1 -46 -6 -12
-0 -0 -0 -0 -0 -0 -0 -0 -0 -0 -0 -0 -0 -0 -0 -0 -0 -0 -0 -0 -0 -0 -0 -0 -0 -0 -0 -0 -0 -34 -30 -23 -36 -38 -22 -45 -33 -42 -1 -2 -11 -4 -7
-0 -0 -0 -0 -0 -0 -0 -0 -0 -0 -0 -0 -0 -0 -0 -0 -0 -0 -0 -0 -0 -0 -0 -0 -0 -0 -0 -0 -0 -0 -7 -23 -27 -24 -42 -64 -79 -47 -26 -17 -4 -7 -10
-0 -0 -0 -0 -0 -0 -0 -0 -0 -0 -0 -0 -0 -0 -0 -0 -0 -0 -0 -0 -0 -0 -0 -0 -0 -0 -0 -0 -0 -0 -0 -0 -0 -0 -0 -0 -0 -47 -0 -0 -0 -0 -0
-0 -0 -0 -0 -0 -0 -0 -0 -0 -0 -0 -0 -0 -0 -0 -0 -0 -0 -0 -0 -0 -0 -0 -0 -0 -0 -0 -0 -0 -0 -0 -0 -0 -0 -0 -0 -0 -0 -0 -0 -0 -0 -0
-0 -0 -0 -0 -0 -0 -0 -0 -0 -0 -0 -0 -0 -0 -0 -0 -0 -0 -0 -0 -0 -0 -0 -0 -0 -0 -0 -0 -0 -0 -0 -0 -0 -0 -0 -0 -0 -0 -0 -0 -0 -0 -0
-0 -0 -0 -0 -0 -0 -0 -0 -0 -0 -0 -0 -0 -0 -0 -0 -0 -0 -0 -0 -0 -0 -0 -0 -0 -0 -0 -0 -0 -0 -0 -0 -0 -0 -0 -0 -0 -0 -0 -0 -0 -0 -0
-0 -0 -0 -0 -0 -0 -0 -0 -0 -0 -0 -0 -0 -0 -0 -0 -0 -0 -0 -0 -0 -0 -0 -0 -0 -0 -0 -0 -0 -0 -0 -0 -0 -0 -0 -0 -0 -0 -0 -0 -0 -0 -0
-0 -0 -0 -0 -0 -0 -0 -0 -0 -0 -0 -0 -0 -0 -0 -0 -0 -0 -0 -0 -0 -0 -0 -0 -0 -0 -0 -0 -0 -0 -0 -0 -0 -0 -0 -0 -0 -0 -0 -0 -0 -0 -0
-0 -0 -0 -0 -0 -0 -0 -0 -0 -0 -0 -0 -0 -0 -0 -0 -0 -0 -0 -0 -0 -0 -0 -0 -0 -0 -0 -0 -0 -0 -0 -0 -0 -0 -0 -0 -0 -0 -0 -0 -0 -0 -0
-0 -0 -0 -0 -0 -0 -0 -0 -0 -0 -0 -0 -0 -0 -0 -0 -0 -0 -0 -0 -0 -0 -0 -0 -0 -0 -0 -0 -0 -0 -0 -0 -0 -0 -0 -0 -0 -0 -0 -0 -0 -0 -0
-0 -0 -0 -0 -0 -0 -0 -0 -0 -0 -0 -0 -0 -0 -0 -0 -0 -0 -0 -0 -0 -0 -0 -0 -0 -0 -0 -0 -0 -0 -0 -0 -0 -0 -0 -0 -0 -0 -0 -0 -0 -0 -0
-0 -0 -0 -0 -0 -0 -0 -0 -0 -0 -0 -0 -0 -0 -0 -0 -0 -0 -0 -0 -0 -0 -0 -0 -0 -0 -0 -0 -0 -0 -0 -0 -0 -0 -0 -0 -0 -0 -0 -0 -0 -0 -0
Wind_Speed
36 31 29 26 27 29 29 30 32 32 32 33 35 36 36 37 36 34 34 34 33 33 33 34 35 34 35 35 33 33 31 30 28 31 35 35 36 35 33 30 28 25 24
33 31 29 27 27 28 29 30 30 31 31 31 32 32 34 35 37 36 36 35 34 33 33 33 34 34 36 36 36 35 37 33 32 36 35 38 38 38 37 33 31 29 28
30 29 25 25 24 25 26 27 27 28 28 29 30 31 32 32 33 33 34 33 33 34 34 34 34 35 35 38 37 37 37 40 35 34 35 37 42 34 35 38 36 33 31
32 26 21 20 23 23 23 25 27 28 29 30 31 32 33 35 34 35 35 36 33 33 33 34 35 36 37 39 38 38 39 39 41 37 39 38 36 35 37 34 38 38 35
26 28 19 27 24 24 24 25 27 28 29 31 31 32 33 33 33 32 33 33 33 33 34 35 36 37 38 40 40 39 39 40 43 41 37 41 38 39 38 40 38 38 38
21 22 22 24 25 25 26 26 28 28 29 30 31 31 34 36 33 29 29 30 30 30 31 33 34 35 36 39 40 40 41 42 43 43 41 40 40 39 39 41 40 41 39
17 18 21 23 24 25 25 26 27 28 29 29 30 32 34 34 33 32 28 28 28 29 30 30 30 30 32 34 37 40 40 41 43 43 44 43 45 42 42 44 43 43 37
14 14 15 17 19 22 26 27 28 28 28 29 30 31 33 31 33 32 30 27 24 25 25 26 26 27 28 29 31 36 39 41 42 42 42 44 45 42 40 44 35 46 41
11 12 12 12 13 13 17 21 24 27 28 28 29 31 32 33 34 35 32 30 28 26 26 23 24 28 28 29 30 32 36 37 37 40 41 44 44 44 46 39 37 34 35
6 6 7 10 12 11 12 26 28 28 28 28 29 30 32 33 34 34 34 35 31 21 26 24 19 20 22 25 27 31 31 36 37 36 36 39 40 41 43 45 43 44 45
4 3 3 3 10 5 6 10 21 29 30 30 30 31 32 32 33 33 36 36 33 27 21 22 20 17 17 18 22 27 30 33 36 35 35 37 37 38 37 38 42 44 41
4 2 2 2 21 28 8 5 14 20 24 29 31 31 30 32 33 34 35 37 35 34 30 19 20 16 19 18 16 19 26 31 34 35 35 37 35 37 37 36 38 42 43
3 4 4 5 10 16 13 9 11 20 27 31 31 32 32 32 33 35 36 35 35 34 33 30 19 20 17 18 15 15 20 26 28 30 34 35 33 34 35 36 37 38 41
6 16 12 5 2 5 6 7 7 10 26 28 30 31 32 32 31 32 34 33 33 33 32 30 28 25 15 12 9 11 14 20 19 27 31 32 33 32 32 31 33 36 38
35 32 28 28 19 16 12 5 5 4 8 18 25 27 26 25 25 26 28 30 31 31 31 29 28 28 24 19 8 7 10 16 22 29 37 27 31 32 29 29 27 30 32
36 36 36 35 31 28 25 16 7 5 3 10 18 20 21 22 22 21 18 24 29 29 31 29 28 28 26 29 3 6 8 9 13 35 37 35 34 33 25 23 21 22 26
38 38 38 37 35 33 28 22 16 15 13 14 17 18 19 20 20 18 15 18 24 28 28 28 28 28 28 27 24 15 6 9 21 27 31 34 35 27 26 22 23 25 25
38 39 39 40 38 34 32 26 21 17 16 17 18 18 18 18 17 17 19 20 20 23 25 26 26 27 27 26 23 18 15 14 18 19 18 20 24 20 13 13 13 16 16
43 42 40 39 39 37 34 28 24 20 19 18 18 18 17 17 17 16 17 17 18 20 22 22 24 25 26 22 23 22 16 14 14 15 15 16 15 12 8 8 6 8 10
45 43 42 41 37 36 34 30 26 22 21 19 17 16 16 16 15 15 15 16 16 18 19 21 22 23 23 23 23 21 19 18 16 15 16 14 17 10 8 12 5 3 8
51 48 45 45 42 38 31 32 32 26 23 20 20 16 14 15 15 13 14 13 14 15 17 19 20 22 22 22 22 21 20 19 15 15 14 15 13 12 13 12 10 8 8
52 50 47 48 44 38 35 32 28 34 27 23 20 18 14 12 13 13 12 12 13 13 14 15 17 19 20 20 20 20 20 18 15 15 16 14 14 15 14 14 13 11 11
50 48 47 47 47 43 38 37 35 26 33 27 24 19 17 13 11 11 10 11 12 14 14 15 15 16 17 17 18 17 17 17 16 15 15 15 15 15 15 15 15 14 14
50 47 47 48 49 47 42 39 37 30 25 32 28 24 19 16 14 11 10 9 10 12 14 15 15 15 15 15 15 15 15 15 14 14 15 15 15 15 15 15 15 15 15
47 44 46 45 46 47 46 42 37 30 29 30 31 27 24 19 16 15 11 9 10 9 12 14 14 14 14 13 13 13 12 12 12 13 14 14 15 15 16 16 16 16 17
46 47 46 46 46 46 45 44 38 33 31 27 32 31 27 25 21 17 18 18 18 13 13 11 10 13 13 11 12 12 11 10 11 12 12 13 14 15 15 16 17 17 18
Wind_Direction
266 269 270 274 277 282 287 292 294 298 301 301 299 298 298 297 296 294 291 288 285 281 277 275 272 269 268 266 265 265 263 264 265 269 271 270 268 268 269 270 271 270 269
264 268 269 274 277 282 288 293 298 301 304 305 305 304 303 301 297 294 291 289 285 281 278 275 273 270 269 266 264 262 263 262 261 267 271 270 269 266 266 267 268 268 270
260 264 271 275 284 287 293 298 303 306 311 312 311 309 307 305 303 298 293 291 285 281 278 276 275 272 269 268 265 262 258 263 263 258 265 270 269 273 268 264 266 267 267
237 263 275 282 285 293 297 299 303 306 310 313 311 310 309 305 303 300 296 292 287 282 278 276 275 273 271 268 266 264 263 261 263 262 257 263 273 270 273 271 267 266 265
198 207 273 257 281 289 295 301 304 308 311 313 315 315 313 312 308 304 300 296 291 285 280 278 276 274 272 270 267 264 262 262 261 260 264 263 263 271 268 273 272 269 267
184 217 251 260 262 275 285 294 299 303 309 313 318 321 316 311 313 311 307 302 297 292 287 283 280 277 274 271 268 264 262 262 262 261 261 262 261 263 269 269 270 273 271
178 206 231 244 266 281 288 295 302 303 306 307 309 316 316 313 316 313 314 308 303 296 292 288 284 281 278 275 270 265 263 260 260 260 261 263 264 263 264 268 269 269 271
168 179 187 204 221 243 269 284 285 279 286 291 308 316 322 332 321 319 319 317 311 306 300 293 287 284 282 278 273 269 265 261 260 260 261 263 262 269 266 262 269 266 270
168 183 190 196 200 202 219 236 253 284 299 318 323 320 327 330 322 317 321 318 317 310 305 299 292 286 284 281 277 273 266 263 261 260 261 262 264 263 264 268 266 272 272
188 193 202 209 207 204 206 286 291 300 313 313 317 321 331 330 325 327 327 319 322 319 308 303 294 291 289 285 280 276 271 264 261 261 261 262 264 265 264 264 267 266 270
204 203 229 307 325 219 210 209 321 301 298 309 316 322 327 331 335 335 330 329 326 326 322 309 302 298 294 291 284 278 272 266 262 261 261 263 266 266 267 267 264 263 265
263 272 321 282 238 242 227 282 325 323 322 316 317 321 332 335 339 340 336 333 323 320 317 322 310 309 304 300 289 281 276 269 263 262 262 265 268 267 268 269 267 262 264
339 286 272 258 236 232 229 242 308 313 308 306 312 317 325 327 330 333 338 342 339 322 312 314 318 310 308 302 294 281 277 273 269 264 262 264 266 269 269 269 270 266 265
2 9 8 353 277 241 238 247 262 304 305 307 312 313 313 325 340 343 340 343 347 338 324 314 317 315 321 311 288 279 277 273 270 271 270 264 266 270 271 271 270 270 269
329 342 347 339 347 351 351 324 252 245 313 316 313 317 332 344 351 353 351 348 345 340 331 330 332 321 324 330 329 299 278 275 279 276 266 271 271 271 272 272 272 271 268
328 329 330 327 330 331 334 344 343 336 335 326 323 329 338 346 354 4 16 3 337 338 342 343 350 346 334 308 340 221 213 273 211 264 263 269 272 273 269 264 264 265 266
330 326 326 327 327 324 326 328 328 330 328 326 325 329 336 343 351 1 16 16 357 336 342 341 344 345 338 330 332 346 356 328 293 276 268 269 272 279 271 269 269 271 269
336 329 322 320 320 323 321 320 320 318 319 319 321 325 330 337 347 353 354 0 6 359 349 345 345 348 344 342 346 350 336 332 304 295 298 297 289 297 273 274 261 267 280
325 323 324 324 317 315 318 317 313 312 310 313 316 320 325 330 338 345 351 359 8 9 3 4 353 349 347 345 355 3 356 11 343 331 343 320 322 314 293 278 272 268 279
323 319 319 320 321 317 313 314 310 305 304 305 309 314 318 322 329 336 344 352 2 11 21 14 12 5 356 353 4 6 6 18 15 4 11 4 19 21 18 46 31 327 296
313 311 311 311 313 313 317 310 303 300 298 301 302 306 312 315 320 328 334 344 354 360 5 10 12 13 12 11 14 21 29 29 14 16 358 5 5 3 15 12 348 344 320
310 307 306 304 306 310 308 310 307 295 294 293 295 298 302 309 312 315 322 330 334 344 352 359 0 1 4 4 8 20 30 40 25 14 11 355 1 4 356 356 358 343 340
310 308 305 301 300 302 303 300 303 304 287 285 285 289 293 298 303 305 309 315 319 321 329 337 344 350 353 357 1 8 14 17 21 22 25 16 11 9 6 6 7 4 355
309 308 304 301 298 296 296 296 294 298 292 280 279 280 282 287 292 296 299 304 309 313 314 319 327 336 342 347 351 354 358 2 5 6 5 7 7 7 7 2 358 357 355
311 309 306 303 299 293 290 291 293 291 289 279 275 274 275 277 281 286 287 290 301 308 310 312 316 322 329 336 345 352 356 359 2 1 355 351 349 348 346 345 345 345 343
311 309 305 301 298 294 290 288 288 288 286 280 270 269 269 270 273 276 284 287 291 297 305 312 318 319 324 333 336 341 350 358 357 351 351 349 347 345 343 341 338 337 336